This is the latest recevied weather packets stored in our database for station/object KC3ELT-10. If no packets are shown the sender has not sent any weather packets the latest 10 day(s).
| Time | Temp. | Humidity | Pressure | Rain* | Wind** | Luminosity | Snow |
|---|---|---|---|---|---|---|---|
| 1777600079 | 7.78° C | 87% | 1005.8 hPa | 0 mm | 4.92 m/s, 315° | - | - |
| 1777599779 | 7.78° C | 88% | 1005.7 hPa | 0 mm | 0.89 m/s, 341° | - | - |
| 1777599479 | 7.78° C | 88% | 1005.7 hPa | 0 mm | 2.68 m/s, 0° | - | - |
| 1777599179 | 8.33° C | 88% | 1005.7 hPa | 0 mm | 1.79 m/s, 323° | - | - |
| 1777598879 | 8.33° C | 88% | 1005.3 hPa | 0 mm | 0.89 m/s, 317° | - | - |
| 1777598579 | 8.33° C | 88% | 1005.3 hPa | 0 mm | 1.34 m/s, 354° | - | - |
| 1777598279 | 8.33° C | 88% | 1005.3 hPa | 0 mm | 1.79 m/s, 349° | - | - |
| 1777597979 | 8.33° C | 88% | 1005.1 hPa | 0 mm | 1.79 m/s, 308° | - | - |
| 1777597679 | 8.33° C | 88% | 1005.1 hPa | 0 mm | 0.89 m/s, 314° | - | - |
| 1777597379 | 8.33° C | 88% | 1005.1 hPa | 0 mm | 0.89 m/s, 340° | - | - |
| 1777597078 | 8.33° C | 88% | 1004.8 hPa | 0 mm | 1.79 m/s, 324° | - | - |
| 1777596779 | 8.33° C | 88% | 1004.8 hPa | 0 mm | 2.68 m/s, 298° | - | - |
| 1777596479 | 8.33° C | 88% | 1004.8 hPa | 0 mm | 0.45 m/s, 345° | - | - |
| 1777596179 | 8.33° C | 88% | 1004.7 hPa | 0 mm | 0.45 m/s, 325° | - | - |
| 1777595879 | 8.33° C | 88% | 1004.7 hPa | 0 mm | 0.89 m/s, 347° | - | - |
| 1777595578 | 8.33° C | 88% | 1004.7 hPa | 0 mm | 0.89 m/s, 339° | - | - |
| 1777595278 | 8.33° C | 88% | 1004.3 hPa | 0 mm | 0.89 m/s, 359° | - | - |
| 1777594979 | 8.33° C | 88% | 1004.3 hPa | 0 mm | 0.45 m/s, 330° | - | - |
| 1777594679 | 8.33° C | 88% | 1004.3 hPa | 0 mm | 0.89 m/s, 328° | - | - |
| 1777594379 | 8.89° C | 88% | 1004.1 hPa | 0 mm | 1.34 m/s, 303° | - | - |
| 1777594078 | 8.89° C | 87% | 1004.1 hPa | 0 mm | 2.24 m/s, 288° | - | - |
| 1777593778 | 8.89° C | 87% | 1004.1 hPa | 0 mm | 0.89 m/s, 343° | - | - |
| 1777593479 | 8.89° C | 87% | 1004 hPa | 0 mm | 1.34 m/s, 358° | - | - |
| 1777593179 | 8.89° C | 87% | 1004 hPa | 0 mm | 1.34 m/s, 336° | - | - |
| 1777592879 | 8.89° C | 87% | 1004 hPa | 0 mm | 0.89 m/s, 326° | - | - |
* Rain latest hour (hover to see other rain measurements)
** Current wind speed in m/s (hover to see current wind gust speed)